,,,PA_Meas_PMT16A,,PR_Meas_QMR101_102,,RH_Meas_QMH101,,SR_Meas_QMS101,,TA_Meas_QMH101,,GenWind,,GenWind,
date,time,status,PA,status,PR,status,RH,status,SR,status,TA,status,DirAvg,status,SpdAvg,
2011-08-11, 00:00:04,VALID,1004.43,VALID,0,INVALID,163.678,VALID,0,VALID,24.8308,VALID,20,VALID,0,
2011-08-11, 00:01:04,VALID,1004.41,VALID,0,INVALID,163.67,VALID,0,VALID,24.8327,VALID,22,VALID,0,
2011-08-11, 00:02:04,VALID,1004.4,VALID,0,INVALID,163.639,VALID,0,VALID,24.7724,VALID,22,VALID,0,
2011-08-11, 00:03:04,VALID,1004.42,VALID,0,INVALID,163.678,VALID,0,VALID,24.7529,VALID,22,VALID,0,
2011-08-11, 00:04:04,VALID,1004.42,VALID,0,INVALID,163.685,VALID,0,VALID,24.7743,VALID,22,VALID,0,
2011-08-11, 00:05:04,VALID,1004.39,VALID,0,INVALID,163.662,VALID,0,VALID,24.7529,VALID,22,VALID,0,
2011-08-11, 00:06:04,VALID,1004.41,VALID,0,INVALID,163.678,VALID,0,VALID,24.7724,VALID,22,VALID,0,
2011-08-11, 00:07:04,VALID,1004.42,VALID,0,INVALID,163.678,VALID,0,VALID,24.7724,VALID,18,VALID,0,
2011-08-11, 00:08:04,VALID,1004.39,VALID,0,INVALID,163.647,VALID,0,VALID,24.7919,VALID,18,VALID,0,
2011-08-11, 00:09:04,VALID,1004.36,VALID,0,INVALID,163.662,VALID,0,VALID,24.8113,VALID,18,VALID,0,
2011-08-11, 00:10:04,VALID,1004.34,VALID,0,INVALID,163.678,VALID,0,VALID,24.8327,VALID,18,VALID,0,
2011-08-11, 00:11:04,VALID,1004.36,VALID,0,INVALID,163.67,VALID,0,VALID,24.8113,VALID,18,VALID,0,
2011-08-11, 00:12:04,VALID,1004.34,VALID,0,INVALID,163.67,VALID,0,VALID,24.8308,VALID,18,VALID,0,
2011-08-11, 00:13:04,VALID,1004.33,VALID,0,INVALID,163.685,VALID,0,VALID,24.8308,VALID,18,VALID,0,
2011-08-11, 00:14:04,VALID,1004.33,VALID,0,INVALID,163.731,VALID,0.100563,VALID,24.8308,VALID,18,VALID,0,
2011-08-11, 00:15:04,VALID,1004.31,VALID,0,INVALID,163.708,VALID,0,VALID,24.8308,VALID,18,VALID,0,
2011-08-11, 00:16:04,VALID,1004.3,VALID,0,INVALID,163.708,VALID,0,VALID,24.8308,VALID,18,VALID,0,
2011-08-11, 00:17:04,VALID,1004.28,VALID,0,INVALID,163.662,VALID,0.100563,VALID,24.8095,VALID,18,VALID,0,
2011-08-11, 00:18:04,VALID,1004.27,VALID,0,INVALID,163.655,VALID,0.100563,VALID,24.8095,VALID,18,VALID,0,
2011-08-11, 00:19:04,VALID,1004.27,VALID,0,INVALID,163.655,VALID,0.100563,VALID,24.8113,VALID,18,VALID,0,
2011-08-11, 00:20:04,VALID,1004.23,VALID,0,INVALID,163.685,VALID,0.100563,VALID,24.8113,VALID,18,VALID,0,
2011-08-11, 00:21:04,VALID,1004.29,VALID,0,INVALID,163.67,VALID,0.100563,VALID,24.7705,VALID,18,VALID,0,
2011-08-11, 00:22:04,VALID,1004.3,VALID,0,INVALID,163.723,VALID,0,VALID,24.7919,VALID,18,VALID,0,
2011-08-11, 00:23:04,VALID,1004.31,VALID,0,INVALID,163.662,VALID,0,VALID,24.7705,VALID,18,VALID,0,
2011-08-11, 00:24:04,VALID,1004.31,VALID,0,INVALID,163.662,VALID,0,VALID,24.7919,VALID,18,VALID,0,
2011-08-11, 00:25:04,VALID,1004.3,VALID,0,INVALID,163.685,VALID,0.100563,VALID,24.7919,VALID,5,VALID,0,
2011-08-11, 00:26:04,VALID,1004.26,VALID,0,INVALID,163.678,VALID,0,VALID,24.7919,VALID,5,VALID,0,
2011-08-11, 00:27:04,VALID,1004.27,VALID,0,INVALID,163.662,VALID,0.100563,VALID,24.79,VALID,5,VALID,0,
2011-08-11, 00:28:04,VALID,1004.26,VALID,0,INVALID,163.67,VALID,0,VALID,24.8132,VALID,5,VALID,0,
2011-08-11, 00:29:04,VALID,1004.28,VALID,0,INVALID,163.655,VALID,0,VALID,24.7724,VALID,5,VALID,0,
2011-08-11, 00:30:04,VALID,1004.22,VALID,0,INVALID,163.639,VALID,0.100563,VALID,24.7919,VALID,5,VALID,0,
2011-08-11, 00:31:04,VALID,1004.25,VALID,0,INVALID,163.708,VALID,0,VALID,24.7919,VALID,4,VALID,0,
2011-08-11, 00:32:04,VALID,1004.23,VALID,0,INVALID,163.655,VALID,0,VALID,24.7705,VALID,4,VALID,0,
2011-08-11, 00:33:04,VALID,1004.23,VALID,0,INVALID,163.662,VALID,0.100563,VALID,24.8113,VALID,4,VALID,0,
2011-08-11, 00:34:04,VALID,1004.2,VALID,0,INVALID,163.678,VALID,0,VALID,24.8095,VALID,4,VALID,0,
2011-08-11, 00:35:04,VALID,1004.17,VALID,0,INVALID,163.678,VALID,0,VALID,24.8308,VALID,1,VALID,0,
2011-08-11, 00:36:04,VALID,1004.18,VALID,0,INVALID,163.693,VALID,0,VALID,24.8308,VALID,346,VALID,0,
2011-08-11, 00:37:04,VALID,1004.16,VALID,0,INVALID,163.685,VALID,0,VALID,24.8503,VALID,349,VALID,0,
2011-08-11, 00:38:04,VALID,1004.12,VALID,0,INVALID,163.662,VALID,0,VALID,24.8716,VALID,349,VALID,0,
2011-08-11, 00:39:04,VALID,1004.11,VALID,0,INVALID,163.647,VALID,0.100563,VALID,24.8679,VALID,349,VALID,0,
2011-08-11, 00:40:04,VALID,1004.09,VALID,0,INVALID,163.655,VALID,0.100563,VALID,24.9087,VALID,349,VALID,0,
2011-08-11, 00:41:04,VALID,1004.08,VALID,0,INVALID,163.647,VALID,0.100563,VALID,24.9476,VALID,350,VALID,0,
2011-08-11, 00:42:04,VALID,1004.05,VALID,0,INVALID,163.639,VALID,0.100563,VALID,24.9671,VALID,348,VALID,0,
2011-08-11, 00:43:04,VALID,1004.02,VALID,0,INVALID,163.67,VALID,0,VALID,24.9847,VALID,347,VALID,0,
2011-08-11, 00:44:04,VALID,1004.02,VALID,0,INVALID,163.662,VALID,0,VALID,25.0274,VALID,347,VALID,0,
2011-08-11, 00:45:04,VALID,1004.02,VALID,0,INVALID,163.624,VALID,0,VALID,25.0255,VALID,347,VALID,0,
2011-08-11, 00:46:04,VALID,1003.99,VALID,0,INVALID,163.67,VALID,0,VALID,25.0255,VALID,347,VALID,0,
2011-08-11, 00:47:04,VALID,1004.01,VALID,0,INVALID,163.716,VALID,0.100563,VALID,25.0255,VALID,347,VALID,0,
2011-08-11, 00:48:04,VALID,1003.99,VALID,0,INVALID,163.647,VALID,0.100563,VALID,25.0255,VALID,347,VALID,0,
2011-08-11, 00:49:04,VALID,1003.97,VALID,0,INVALID,163.67,VALID,0,VALID,25.0663,VALID,347,VALID,0,
2011-08-11, 00:50:04,VALID,1003.98,VALID,0,INVALID,163.655,VALID,0,VALID,25.0274,VALID,347,VALID,0,
2011-08-11, 00:51:04,VALID,1003.98,VALID,0,INVALID,163.662,VALID,0,VALID,25.0469,VALID,347,VALID,0,
2011-08-11, 00:52:04,VALID,1003.98,VALID,0,INVALID,163.662,VALID,0,VALID,25.006,VALID,347,VALID,0,
2011-08-11, 00:53:04,VALID,1003.97,VALID,0,INVALID,163.678,VALID,0,VALID,25.0274,VALID,347,VALID,0,
2011-08-11, 00:54:04,VALID,1003.97,VALID,0,INVALID,163.655,VALID,0,VALID,25.006,VALID,347,VALID,0,
2011-08-11, 00:55:04,VALID,1003.98,VALID,0,INVALID,163.662,VALID,0,VALID,25.006,VALID,347,VALID,0,
2011-08-11, 00:56:04,VALID,1003.95,VALID,0,INVALID,163.647,VALID,0,VALID,24.9866,VALID,347,VALID,0,
2011-08-11, 00:57:04,VALID,1003.94,VALID,0,INVALID,163.647,VALID,0,VALID,25.006,VALID,347,VALID,0,
2011-08-11, 00:58:04,VALID,1003.94,VALID,0,INVALID,163.662,VALID,0,VALID,24.9866,VALID,347,VALID,0,
2011-08-11, 00:59:04,VALID,1003.93,VALID,0,INVALID,163.639,VALID,0.100563,VALID,24.9866,VALID,347,VALID,0,
2011-08-11, 01:00:04,VALID,1003.93,VALID,0,INVALID,163.639,VALID,0,VALID,25.006,VALID,347,VALID,0,
2011-08-11, 01:01:04,VALID,1003.93,VALID,0,INVALID,163.639,VALID,0.100563,VALID,25.006,VALID,347,VALID,0,
2011-08-11, 01:02:04,VALID,1003.92,VALID,0,INVALID,163.655,VALID,0,VALID,25.006,VALID,347,VALID,0,
2011-08-11, 01:03:04,VALID,1003.91,VALID,0,INVALID,163.639,VALID,0,VALID,25.006,VALID,346,VALID,0,
2011-08-11, 01:04:04,VALID,1003.89,VALID,0,INVALID,163.655,VALID,0,VALID,25.045,VALID,347,VALID,0,
2011-08-11, 01:05:04,VALID,1003.86,VALID,0,INVALID,163.685,VALID,0,VALID,25.0625,VALID,356,VALID,0,
2011-08-11, 01:06:04,VALID,1003.83,VALID,0,INVALID,163.685,VALID,0,VALID,25.1034,VALID,352,VALID,0,
2011-08-11, 01:07:04,VALID,1003.8,VALID,0,INVALID,163.632,VALID,0,VALID,25.1637,VALID,357,VALID,0,
2011-08-11, 01:08:04,VALID,1003.78,VALID,0,INVALID,163.617,VALID,0,VALID,25.1813,VALID,360,VALID,0,
2011-08-11, 01:09:04,VALID,1003.76,VALID,0,INVALID,163.662,VALID,0,VALID,25.2007,VALID,11,VALID,0,
2011-08-11, 01:10:04,VALID,1003.75,VALID,0,INVALID,163.601,VALID,0,VALID,25.2202,VALID,11,VALID,0,
2011-08-11, 01:11:04,VALID,1003.73,VALID,0,INVALID,163.624,VALID,0,VALID,25.2183,VALID,11,VALID,0,
2011-08-11, 01:12:04,VALID,1003.71,VALID,0,INVALID,163.632,VALID,0.100563,VALID,25.2592,VALID,258,VALID,0,
2011-08-11, 01:13:04,VALID,1003.71,VALID,0,INVALID,163.617,VALID,0,VALID,25.2592,VALID,352,VALID,0,
2011-08-11, 01:14:04,VALID,1003.67,VALID,0,INVALID,163.655,VALID,0.100563,VALID,25.3,VALID,3,VALID,0,
2011-08-11, 01:15:04,VALID,1003.68,VALID,0,INVALID,163.67,VALID,0,VALID,25.2767,VALID,267,VALID,0,
2011-08-11, 01:16:04,VALID,1003.66,VALID,0,INVALID,163.632,VALID,0,VALID,25.2981,VALID,267,VALID,0,
2011-08-11, 01:17:04,VALID,1003.67,VALID,0,INVALID,163.647,VALID,0,VALID,25.3195,VALID,271,VALID,0,
2011-08-11, 01:18:04,VALID,1003.67,VALID,0,INVALID,163.617,VALID,0,VALID,25.3176,VALID,1,VALID,0,
2011-08-11, 01:19:04,VALID,1003.66,VALID,0,INVALID,163.647,VALID,0.100563,VALID,25.3176,VALID,351,VALID,0,
2011-08-11, 01:20:04,VALID,1003.66,VALID,0,INVALID,163.609,VALID,0,VALID,25.2981,VALID,348,VALID,0,
2011-08-11, 01:21:04,VALID,1003.7,VALID,0,INVALID,163.662,VALID,0,VALID,25.2962,VALID,348,VALID,0,
2011-08-11, 01:22:04,VALID,1003.66,VALID,0,INVALID,163.632,VALID,0,VALID,25.3176,VALID,345,VALID,0,
2011-08-11, 01:23:04,VALID,1003.66,VALID,0,INVALID,163.617,VALID,0.100563,VALID,25.3176,VALID,343,VALID,0,
2011-08-11, 01:24:04,VALID,1003.65,VALID,0,INVALID,163.678,VALID,0.100563,VALID,25.3584,VALID,354,VALID,0,
2011-08-11, 01:25:04,VALID,1003.64,VALID,0,INVALID,163.617,VALID,0,VALID,25.3176,VALID,359,VALID,0,
2011-08-11, 01:26:04,VALID,1003.63,VALID,0,INVALID,163.624,VALID,0,VALID,25.3176,VALID,352,VALID,0,
2011-08-11, 01:27:04,VALID,1003.65,VALID,0,INVALID,163.639,VALID,0,VALID,25.2981,VALID,326,VALID,0,
2011-08-11, 01:28:04,VALID,1003.63,VALID,0,INVALID,163.632,VALID,0.100563,VALID,25.3195,VALID,347,VALID,0,
2011-08-11, 01:29:04,VALID,1003.67,VALID,0,INVALID,163.617,VALID,0.100563,VALID,25.2981,VALID,334,VALID,0,
2011-08-11, 01:30:04,VALID,1003.65,VALID,0,INVALID,163.624,VALID,0,VALID,25.337,VALID,344,VALID,0,
2011-08-11, 01:31:04,VALID,1003.62,VALID,0,INVALID,163.67,VALID,0,VALID,25.337,VALID,344,VALID,0,
2011-08-11, 01:32:04,VALID,1003.62,VALID,0,INVALID,163.639,VALID,0,VALID,25.3565,VALID,338,VALID,0,
2011-08-11, 01:33:04,VALID,1003.64,VALID,0,INVALID,163.639,VALID,0,VALID,25.4169,VALID,351,VALID,0,
2011-08-11, 01:34:04,VALID,1003.67,VALID,0,INVALID,163.617,VALID,0,VALID,25.4344,VALID,333,VALID,0,
2011-08-11, 01:35:04,VALID,1003.72,VALID,0,INVALID,163.609,VALID,0,VALID,25.4539,VALID,331,VALID,0,
2011-08-11, 01:36:04,VALID,1003.92,VALID,0,INVALID,163.624,VALID,0,VALID,25.4734,VALID,205,VALID,0,
2011-08-11, 01:37:04,VALID,1003.9,VALID,0,INVALID,163.632,VALID,0,VALID,25.452,VALID,222,VALID,0,
2011-08-11, 01:38:04,VALID,1003.9,VALID,0,INVALID,163.678,VALID,0.100563,VALID,25.3955,VALID,203,VALID,0,
2011-08-11, 01:39:04,VALID,1003.89,VALID,0,INVALID,163.655,VALID,0,VALID,25.2981,VALID,214,VALID,0,
2011-08-11, 01:40:04,VALID,1003.92,VALID,0,INVALID,163.678,VALID,0,VALID,25.2202,VALID,178,VALID,0,
2011-08-11, 01:41:04,VALID,1003.88,VALID,0,INVALID,163.678,VALID,0,VALID,25.1618,VALID,222,VALID,0,
2011-08-11, 01:42:04,VALID,1003.87,VALID,0,INVALID,163.609,VALID,0,VALID,25.1229,VALID,225,VALID,0,
2011-08-11, 01:43:04,VALID,1003.84,VALID,0,INVALID,163.639,VALID,0,VALID,25.1053,VALID,221,VALID,0,
2011-08-11, 01:44:04,VALID,1003.83,VALID,0,INVALID,163.662,VALID,0,VALID,25.045,VALID,255,VALID,0,
2011-08-11, 01:45:04,VALID,1003.85,VALID,0,INVALID,163.685,VALID,0,VALID,25.0255,VALID,178,VALID,0,
2011-08-11, 01:46:04,VALID,1003.82,VALID,0,INVALID,163.624,VALID,0,VALID,25.006,VALID,276,VALID,0,
2011-08-11, 01:47:04,VALID,1003.84,VALID,0,INVALID,163.67,VALID,0,VALID,25.0079,VALID,267,VALID,0,
2011-08-11, 01:48:04,VALID,1003.81,VALID,0,INVALID,163.632,VALID,0,VALID,24.9866,VALID,297,VALID,0,
2011-08-11, 01:49:04,VALID,1003.86,VALID,0,INVALID,163.647,VALID,0,VALID,24.9866,VALID,226,VALID,0,
2011-08-11, 01:50:04,VALID,1003.83,VALID,0,INVALID,163.716,VALID,0,VALID,24.9866,VALID,275,VALID,0,
2011-08-11, 01:51:04,VALID,1003.78,VALID,0,INVALID,163.647,VALID,0,VALID,24.9866,VALID,325,VALID,0,
2011-08-11, 01:52:04,VALID,1003.8,VALID,0,INVALID,163.639,VALID,0,VALID,24.9457,VALID,248,VALID,0,
2011-08-11, 01:53:04,VALID,1003.81,VALID,0,INVALID,163.685,VALID,0,VALID,24.9885,VALID,236,VALID,0,
2011-08-11, 01:54:04,VALID,1003.81,VALID,0,INVALID,163.624,VALID,0,VALID,24.969,VALID,245,VALID,0,
2011-08-11, 01:55:04,VALID,1003.77,VALID,0,INVALID,163.647,VALID,0.100563,VALID,24.9087,VALID,222,VALID,0,
2011-08-11, 01:56:04,VALID,1003.78,VALID,0,INVALID,163.716,VALID,0,VALID,24.8892,VALID,226,VALID,0,
2011-08-11, 01:57:04,VALID,1003.77,VALID,0,INVALID,163.731,VALID,0,VALID,24.8892,VALID,233,VALID,0,
2011-08-11, 01:58:04,VALID,1003.76,VALID,0,INVALID,163.716,VALID,0,VALID,24.9087,VALID,238,VALID,0,
2011-08-11, 01:59:04,VALID,1003.74,VALID,0,INVALID,163.678,VALID,0,VALID,24.8892,VALID,244,VALID,0,
2011-08-11, 02:00:04,VALID,1003.73,VALID,0,INVALID,163.685,VALID,0.100563,VALID,24.9087,VALID,257,VALID,0,
2011-08-11, 02:01:04,VALID,1003.73,VALID,0,INVALID,163.678,VALID,0,VALID,24.9087,VALID,232,VALID,0,
2011-08-11, 02:02:04,VALID,1003.69,VALID,0,INVALID,163.647,VALID,0,VALID,24.8892,VALID,288,VALID,0,
2011-08-11, 02:03:04,VALID,1003.66,VALID,0,INVALID,163.662,VALID,0,VALID,24.8484,VALID,269,VALID,0,
2011-08-11, 02:04:04,VALID,1003.68,VALID,0,INVALID,163.662,VALID,0,VALID,24.8892,VALID,263,VALID,0,
2011-08-11, 02:05:04,VALID,1003.7,VALID,0,INVALID,163.655,VALID,0,VALID,24.9087,VALID,285,VALID,0,
2011-08-11, 02:06:04,VALID,1003.75,VALID,0,INVALID,163.647,VALID,0,VALID,24.9087,VALID,249,VALID,0,
2011-08-11, 02:07:04,VALID,1003.74,VALID,0,INVALID,163.639,VALID,0,VALID,24.9087,VALID,237,VALID,0,
2011-08-11, 02:08:04,VALID,1003.8,VALID,0,INVALID,163.678,VALID,0,VALID,24.9476,VALID,272,VALID,0,
2011-08-11, 02:09:04,VALID,1003.8,VALID,0,INVALID,163.716,VALID,0,VALID,24.9476,VALID,196,VALID,0,
2011-08-11, 02:10:04,VALID,1003.77,VALID,0,INVALID,163.624,VALID,0,VALID,24.9671,VALID,133,VALID,0,
2011-08-11, 02:11:04,VALID,1003.78,VALID,0,INVALID,163.639,VALID,0,VALID,24.9671,VALID,194,VALID,0,
2011-08-11, 02:12:04,VALID,1003.78,VALID,0,INVALID,163.67,VALID,0,VALID,24.9866,VALID,183,VALID,0,
2011-08-11, 02:13:04,VALID,1003.76,VALID,0,INVALID,163.647,VALID,0,VALID,24.9866,VALID,217,VALID,0,
2011-08-11, 02:14:04,VALID,1003.77,VALID,0,INVALID,163.685,VALID,0,VALID,24.9866,VALID,222,VALID,0,
2011-08-11, 02:15:04,VALID,1003.82,VALID,0,INVALID,163.655,VALID,0,VALID,25.0255,VALID,225,VALID,0,
2011-08-11, 02:16:04,VALID,1003.8,VALID,0,INVALID,163.639,VALID,0,VALID,25.0041,VALID,214,VALID,0,
2011-08-11, 02:17:04,VALID,1003.8,VALID,0,INVALID,163.655,VALID,0,VALID,25.045,VALID,340,VALID,0,
2011-08-11, 02:18:04,VALID,1003.78,VALID,0,INVALID,163.678,VALID,0,VALID,25.045,VALID,214,VALID,0,
2011-08-11, 02:19:04,VALID,1003.81,VALID,0,INVALID,163.662,VALID,0.100563,VALID,25.045,VALID,235,VALID,0,
2011-08-11, 02:20:04,VALID,1003.82,VALID,0,INVALID,163.655,VALID,0,VALID,25.0858,VALID,185,VALID,0,
2011-08-11, 02:21:04,VALID,1003.81,VALID,0,INVALID,163.632,VALID,0,VALID,25.0431,VALID,211,VALID,0,
2011-08-11, 02:22:04,VALID,1003.83,VALID,0,INVALID,163.662,VALID,0,VALID,25.0839,VALID,202,VALID,0,
2011-08-11, 02:23:04,VALID,1003.82,VALID,0,INVALID,163.617,VALID,0,VALID,25.1034,VALID,233,VALID,0,
2011-08-11, 02:24:04,VALID,1003.84,VALID,0,INVALID,163.617,VALID,0.100563,VALID,25.1813,VALID,230,VALID,0,
2011-08-11, 02:25:04,VALID,1003.82,VALID,0,INVALID,163.617,VALID,0,VALID,25.2007,VALID,197,VALID,0,
2011-08-11, 02:26:04,VALID,1003.84,VALID,0,INVALID,163.647,VALID,0,VALID,25.2416,VALID,172,VALID,0,
2011-08-11, 02:27:04,VALID,1003.87,VALID,0,INVALID,163.647,VALID,0,VALID,25.2202,VALID,186,VALID,0,
2011-08-11, 02:28:04,VALID,1003.85,VALID,0,INVALID,163.609,VALID,0,VALID,25.2397,VALID,182,VALID,0,
2011-08-11, 02:29:04,VALID,1003.89,VALID,0,INVALID,163.655,VALID,0,VALID,25.2397,VALID,191,VALID,0,
2011-08-11, 02:30:04,VALID,1003.84,VALID,0,INVALID,163.624,VALID,0.100563,VALID,25.2378,VALID,223,VALID,0,
2011-08-11, 02:31:04,VALID,1003.88,VALID,0,INVALID,163.624,VALID,0,VALID,25.2786,VALID,239,VALID,0,
2011-08-11, 02:32:04,VALID,1003.88,VALID,0,INVALID,163.617,VALID,0,VALID,25.2981,VALID,147,VALID,0,
2011-08-11, 02:33:04,VALID,1003.91,VALID,0,INVALID,163.617,VALID,0.100563,VALID,25.2572,VALID,169,VALID,0,
2011-08-11, 02:34:04,VALID,1003.84,VALID,0,INVALID,163.639,VALID,0.100563,VALID,25.3176,VALID,125,VALID,0,
2011-08-11, 02:35:04,VALID,1003.83,VALID,0,INVALID,163.624,VALID,0,VALID,25.3176,VALID,214,VALID,0,
2011-08-11, 02:36:04,VALID,1003.8,VALID,0,INVALID,163.617,VALID,0,VALID,25.3157,VALID,219,VALID,0,
2011-08-11, 02:37:04,VALID,1003.8,VALID,0,INVALID,163.632,VALID,0,VALID,25.376,VALID,207,VALID,0,
2011-08-11, 02:38:04,VALID,1003.79,VALID,0,INVALID,163.617,VALID,0,VALID,25.376,VALID,190,VALID,0,
2011-08-11, 02:39:04,VALID,1003.77,VALID,0,INVALID,163.632,VALID,0,VALID,25.3741,VALID,213,VALID,0,
2011-08-11, 02:40:04,VALID,1003.8,VALID,0,INVALID,163.601,VALID,0,VALID,25.3955,VALID,186,VALID,0,
2011-08-11, 02:41:04,VALID,1003.85,VALID,0,INVALID,163.578,VALID,0,VALID,25.4558,VALID,192,VALID,0,
2011-08-11, 02:42:04,VALID,1003.82,VALID,0,INVALID,160.748,VALID,0,VALID,25.4558,VALID,178,VALID,0,
2011-08-11, 02:43:04,VALID,1003.81,VALID,0,INVALID,122.123,VALID,0,VALID,25.4558,VALID,266,VALID,0,
2011-08-11, 02:44:04,VALID,1003.83,VALID,0,INVALID,125.983,VALID,0,VALID,25.4539,VALID,217,VALID,0,
2011-08-11, 02:45:04,VALID,1003.83,VALID,0,INVALID,120.826,VALID,0,VALID,25.4948,VALID,184,VALID,0,
2011-08-11, 02:46:04,VALID,1003.84,VALID,0,INVALID,119.026,VALID,0,VALID,25.4928,VALID,201,VALID,0,
2011-08-11, 02:47:04,VALID,1003.82,VALID,0,INVALID,119.026,VALID,0,VALID,25.4539,VALID,182,VALID,0,
2011-08-11, 02:48:04,VALID,1003.8,VALID,0,INVALID,110.916,VALID,0,VALID,25.4344,VALID,178,VALID,0,
2011-08-11, 02:49:04,VALID,1003.77,VALID,0,INVALID,113.342,VALID,0,VALID,25.4539,VALID,210,VALID,0,
2011-08-11, 02:50:04,VALID,1003.79,VALID,0,INVALID,115.494,VALID,0,VALID,25.4149,VALID,120,VALID,0,
2011-08-11, 02:51:04,VALID,1003.79,VALID,0,INVALID,119.606,VALID,0,VALID,25.4363,VALID,185,VALID,0,
2011-08-11, 02:52:04,VALID,1003.77,VALID,0,INVALID,122.169,VALID,0,VALID,25.3565,VALID,179,VALID,0,
2011-08-11, 02:53:04,VALID,1003.74,VALID,0,INVALID,120.59,VALID,0,VALID,25.3176,VALID,55,VALID,0,
2011-08-11, 02:54:04,VALID,1003.75,VALID,0,INVALID,120.132,VALID,0,VALID,25.3176,VALID,125,VALID,0,
2011-08-11, 02:55:04,VALID,1003.74,VALID,0,INVALID,123.542,VALID,0,VALID,25.3176,VALID,54,VALID,0,
2011-08-11, 02:56:04,VALID,1003.77,VALID,0,VALID,104,VALID,0,VALID,25.2786,VALID,222,VALID,0,
2011-08-11, 02:57:04,VALID,1003.74,VALID,0,INVALID,114.288,VALID,0,VALID,25.339,VALID,171,VALID,0,
2011-08-11, 02:58:04,VALID,1003.73,VALID,0,INVALID,118.248,VALID,0,VALID,25.2981,VALID,177,VALID,0,
2011-08-11, 02:59:04,VALID,1003.74,VALID,0,INVALID,109.146,VALID,0,VALID,25.2981,VALID,161,VALID,0,
2011-08-11, 03:00:04,VALID,1003.73,VALID,0,VALID,104,VALID,0,VALID,25.3176,VALID,100,VALID,0,
2011-08-11, 03:01:04,VALID,1003.71,VALID,0,VALID,104,VALID,0,VALID,25.3584,VALID,118,VALID,0,
2011-08-11, 03:02:04,VALID,1003.69,VALID,0,VALID,102.662,VALID,0,VALID,25.337,VALID,250,VALID,0,
2011-08-11, 03:03:04,VALID,1003.71,VALID,0,VALID,103.074,VALID,0,VALID,25.3779,VALID,163,VALID,0,
2011-08-11, 03:04:04,VALID,1003.73,VALID,0,VALID,101.952,VALID,0,VALID,25.376,VALID,192,VALID,0,
2011-08-11, 03:05:04,VALID,1003.67,VALID,0,VALID,101.426,VALID,0,VALID,25.3955,VALID,170,VALID,0,
2011-08-11, 03:06:04,VALID,1003.7,VALID,0,VALID,104,VALID,0,VALID,25.4344,VALID,176,VALID,0,
2011-08-11, 03:07:04,VALID,1003.7,VALID,0,VALID,102.105,VALID,0,VALID,25.413,VALID,193,VALID,0,
2011-08-11, 03:08:04,VALID,1003.64,VALID,0,VALID,101.197,VALID,0,VALID,25.4539,VALID,164,VALID,0,
2011-08-11, 03:09:04,VALID,1003.65,VALID,0,VALID,100.32,VALID,0,VALID,25.5142,VALID,184,VALID,0,
2011-08-11, 03:10:04,VALID,1003.6,VALID,0,VALID,100.9,VALID,0,VALID,25.5123,VALID,87,VALID,0,
2011-08-11, 03:11:04,VALID,1003.6,VALID,0,VALID,102.097,VALID,0,VALID,25.5123,VALID,140,VALID,0,
2011-08-11, 03:12:04,VALID,1003.57,VALID,0,VALID,101.563,VALID,0,VALID,25.5123,VALID,220,VALID,0,
2011-08-11, 03:13:04,VALID,1003.56,VALID,0,VALID,104,VALID,0,VALID,25.5123,VALID,122,VALID,0,
2011-08-11, 03:14:04,VALID,1003.54,VALID,0,VALID,101.037,VALID,0,VALID,25.5123,VALID,167,VALID,0,
2011-08-11, 03:15:04,VALID,1003.59,VALID,0,VALID,104,VALID,0,VALID,25.5318,VALID,166,VALID,0,
2011-08-11, 03:16:04,VALID,1003.55,VALID,0,VALID,100.839,VALID,0,VALID,25.5123,VALID,125,VALID,0,
2011-08-11, 03:17:04,VALID,1003.59,VALID,0,VALID,102.09,VALID,0,VALID,25.5513,VALID,188,VALID,0,
2011-08-11, 03:18:04,VALID,1003.56,VALID,0,VALID,99.8163,VALID,0,VALID,25.5298,VALID,118,VALID,0,
2011-08-11, 03:19:04,VALID,1003.57,VALID,0,VALID,99.3509,VALID,0,VALID,25.5707,VALID,175,VALID,0,
2011-08-11, 03:20:04,VALID,1003.57,VALID,0,VALID,99.2441,VALID,0,VALID,25.5707,VALID,175,VALID,0,
2011-08-11, 03:21:04,VALID,1003.56,VALID,0,VALID,98.6491,VALID,0,VALID,25.6506,VALID,148,VALID,0,
2011-08-11, 03:22:04,VALID,1003.58,VALID,0,VALID,96.7952,VALID,0,VALID,25.6486,VALID,182,VALID,0,
2011-08-11, 03:23:04,VALID,1003.55,VALID,0,VALID,96.6198,VALID,0,VALID,25.7071,VALID,218,VALID,0,
2011-08-11, 03:24:04,VALID,1003.56,VALID,0,VALID,95.6662,VALID,0,VALID,25.7265,VALID,155,VALID,0,
2011-08-11, 03:25:04,VALID,1003.56,VALID,0,VALID,98.6109,VALID,0,VALID,25.7655,VALID,152,VALID,0,
2011-08-11, 03:26:04,VALID,1003.57,VALID,0,VALID,96.6121,VALID,0,VALID,25.7674,VALID,182,VALID,0,
2011-08-11, 03:27:04,VALID,1003.53,VALID,0,VALID,96.78,VALID,0,VALID,25.785,VALID,169,VALID,0,
2011-08-11, 03:28:04,VALID,1003.59,VALID,0,VALID,96.4672,VALID,0,VALID,25.8259,VALID,222,VALID,0,
2011-08-11, 03:29:04,VALID,1003.58,VALID,0,VALID,95.9484,VALID,0,VALID,25.783,VALID,198,VALID,0,
2011-08-11, 03:30:04,VALID,1003.56,VALID,0,VALID,95.4068,VALID,0,VALID,25.8239,VALID,145,VALID,0,
2011-08-11, 03:31:04,VALID,1003.61,VALID,0,VALID,95.4068,VALID,0,VALID,25.8453,VALID,164,VALID,0,
2011-08-11, 03:32:04,VALID,1003.62,VALID,0,VALID,95.9713,VALID,0,VALID,25.8239,VALID,162,VALID,0,
2011-08-11, 03:33:04,VALID,1003.62,VALID,0,VALID,96.0857,VALID,0,VALID,25.8044,VALID,206,VALID,0,
2011-08-11, 03:34:04,VALID,1003.63,VALID,0,VALID,96.4443,VALID,0,VALID,25.8239,VALID,171,VALID,0,
2011-08-11, 03:35:04,VALID,1003.65,VALID,0,VALID,97.1309,VALID,0,VALID,25.8239,VALID,139,VALID,0,
2011-08-11, 03:36:04,VALID,1003.67,VALID,0,VALID,99.2822,VALID,0,VALID,25.8239,VALID,159,VALID,0,
2011-08-11, 03:37:04,VALID,1003.68,VALID,0,VALID,98.3515,VALID,0,VALID,25.8044,VALID,157,VALID,0,
2011-08-11, 03:38:04,VALID,1003.69,VALID,0,VALID,97.4589,VALID,0,VALID,25.8044,VALID,134,VALID,0,
2011-08-11, 03:39:04,VALID,1003.68,VALID,0,VALID,97.5505,VALID,0,VALID,25.8239,VALID,176,VALID,0,
2011-08-11, 03:40:05,VALID,1003.67,VALID,0,VALID,98.5423,VALID,0,VALID,25.9038,VALID,172,VALID,0,
2011-08-11, 03:41:05,VALID,1003.62,VALID,0,VALID,97.6573,VALID,0,VALID,25.9038,VALID,151,VALID,0,
2011-08-11, 03:42:05,VALID,1003.62,VALID,0,VALID,98.5804,VALID,0,VALID,25.9038,VALID,142,VALID,0,
2011-08-11, 03:43:05,VALID,1003.6,VALID,0,VALID,98.26,VALID,0,VALID,25.9232,VALID,157,VALID,0,
2011-08-11, 03:44:05,VALID,1003.58,VALID,0,VALID,98.054,VALID,0,VALID,25.9213,VALID,174,VALID,0,
2011-08-11, 03:45:05,VALID,1003.57,VALID,0,VALID,100.732,VALID,0,VALID,25.9427,VALID,239,VALID,0,
2011-08-11, 03:46:05,VALID,1003.56,VALID,0,VALID,98.5117,VALID,0,VALID,25.9427,VALID,158,VALID,0,
2011-08-11, 03:47:05,VALID,1003.54,VALID,0,VALID,96.0629,VALID,0,VALID,25.9408,VALID,203,VALID,0,
2011-08-11, 03:48:05,VALID,1003.55,VALID,0,VALID,96.9173,VALID,0,VALID,26.0012,VALID,188,VALID,0,
2011-08-11, 03:49:05,VALID,1003.56,VALID,0,VALID,97.0622,VALID,0,VALID,25.9992,VALID,193,VALID,0,
2011-08-11, 03:50:05,VALID,1003.52,VALID,0,VALID,95.6814,VALID,0,VALID,26.0206,VALID,189,VALID,0,
2011-08-11, 03:51:05,VALID,1003.48,VALID,0,VALID,95.5136,VALID,0,VALID,26.0187,VALID,170,VALID,0,
2011-08-11, 03:52:05,VALID,1003.48,VALID,0,VALID,96.4214,VALID,0,VALID,26.0381,VALID,207,VALID,0,
2011-08-11, 03:53:05,VALID,1003.47,VALID,0,VALID,97.8785,VALID,0,VALID,26.0187,VALID,263,VALID,0,
2011-08-11, 03:54:05,VALID,1003.46,VALID,0,VALID,98.0693,VALID,0,VALID,26.0187,VALID,178,VALID,0,
2011-08-11, 03:55:05,VALID,1003.45,VALID,0,VALID,98.0464,VALID,0,VALID,26.0012,VALID,157,VALID,0,